Land O' Lakes, WI

5:34 PM CST on February 05, 2016 (GMT -0600)
Kings Land O'Lakes

Weather History for KLNL - January, 2012

Change the Weather History Date:

Monday, January 2, 2012

  Actual Average (KEGV) Record (KEGV)
Temperature  
Mean Temperature 12 °F -  
Max Temperature 17 °F 26 °F 42 °F (1998)
Min Temperature 5 °F 7 °F -19 °F (2014)
Degree Days  
Heating Degree Days 53    
Moisture  
Dew Point 8 °F    
Average Humidity 80    
Maximum Humidity 85    
Minimum Humidity 71    
Precipitation  
Precipitation 0.00 in - - ()
Sea Level Pressure  
Sea Level Pressure 30.13 in    
Wind  
Wind Speed 13 mph (NW)    
Max Wind Speed 17 mph    
Max Gust Speed 33 mph    
Visibility 4 miles    
Events Snow    
Averages and records for this station are not official NWS values.
T = Trace of Precipitation, MM = Missing Value Source: NWS Daily Summary

Daily Weather History Graph

Daily Weather History Graph

Search for Another Location

Airport or City:

Trip Planner

Search our weather history database for the weather conditions in past years. The results will help you decide how hot, cold, wet, or windy it might be!

Date:

Astronomy

Jan. 02, 2012 Rise Set
Actual Time 7:39 AM CST 4:22 PM CST
Civil Twilight 7:04 AM CST 4:56 PM CST
Nautical Twilight 6:26 AM CST 5:34 PM CST
Astronomical Twilight 5:50 AM CST 6:11 PM CST
Moon 11:47 AM CST (1/2) 1:22 AM CST (1/2)
Length of Visible Light 9h 51m
Length of Day
8h 42m
Waxing Gibbous, 64% of the Moon is Illuminated
Jan 2
Waxing Gibbous
Jan 9
Full
Jan 16
Last Quarter
Jan 23
New
Jan 30
First Quarter

Hourly Weather History & Observations

Time (CST) Temp. Windchill Dew Point Humidity Pressure Visibility Wind Dir Wind Speed Gust Speed Precip Events Conditions
12:15 AM 17.2 °F 3.9 °F 13.5 °F 85% 29.91 in 1.5 mi WNW 12.7 mph 23.0 mph N/A Snow Light Snow
12:55 AM 16.7 °F 3.8 °F 12.4 °F 83% 29.92 in 2.0 mi NW 11.5 mph 23.0 mph N/A Snow Light Snow
1:35 AM 16.5 °F 2.4 °F 12.6 °F 84% 29.93 in 1.8 mi NW 13.8 mph 21.9 mph N/A Snow Light Snow
1:55 AM 16.2 °F 3.9 °F 12.0 °F 84% 29.93 in 1.8 mi WNW 10.4 mph 21.9 mph N/A Snow Light Snow
2:35 AM 15.8 °F 0.3 °F 11.8 °F 84% 29.94 in 2.0 mi NW 16.1 mph 24.2 mph N/A Snow Light Snow
2:55 AM 15.8 °F 5.1 °F 11.8 °F 84% 29.95 in 1.8 mi NW 8.1 mph 16.1 mph N/A Snow Light Snow
3:15 AM 15.8 °F -0.2 °F 12.0 °F 85% 29.95 in 1.8 mi NW 17.3 mph 23.0 mph N/A Snow Light Snow
3:35 AM 15.8 °F 0.9 °F 11.3 °F 82% 29.95 in 2.0 mi NNW 15.0 mph 25.3 mph N/A Snow Light Snow
4:15 AM 15.1 °F 1.8 °F 10.6 °F 82% 29.97 in 2.5 mi NW 11.5 mph 23.0 mph N/A Snow Light Snow
4:35 AM 14.9 °F -1.3 °F 10.4 °F 82% 29.97 in 2.5 mi NNW 17.3 mph 24.2 mph N/A Snow Light Snow
4:55 AM 14.5 °F -0.2 °F 10.2 °F 83% 29.98 in 2.5 mi NW 13.8 mph 20.7 mph N/A Snow Light Snow
5:15 AM 14.5 °F 3.6 °F 10.0 °F 82% 29.99 in 2.5 mi NW 8.1 mph 25.3 mph N/A Snow Light Snow
5:35 AM 14.2 °F -2.3 °F 9.3 °F 81% 29.99 in 3.0 mi NNW 17.3 mph 26.5 mph N/A Snow Light Snow
5:55 AM 13.8 °F -1.7 °F 8.8 °F 80% 30.00 in 3.0 mi NW 15.0 mph 23.0 mph N/A Snow Light Snow
6:15 AM 13.6 °F -1.3 °F 9.0 °F 82% 30.01 in 3.0 mi NW 13.8 mph 25.3 mph N/A Snow Light Snow
6:55 AM 13.1 °F 1.8 °F 8.6 °F 82% 30.02 in 2.5 mi NW 8.1 mph 19.6 mph N/A Snow Light Snow
7:15 AM 13.1 °F -2.6 °F 9.0 °F 84% 30.02 in 2.5 mi NW 15.0 mph 24.2 mph N/A Snow Light Snow
7:35 AM 13.1 °F 0.9 °F 9.1 °F 84% 30.03 in 2.5 mi NW 9.2 mph 18.4 mph N/A Snow Light Snow
7:55 AM 13.5 °F -0.2 °F 9.5 °F 84% 30.05 in 1.5 mi NW 11.5 mph 18.4 mph N/A Snow Light Snow
8:15 AM 13.6 °F 0.7 °F 9.7 °F 84% 30.06 in 0.5 mi NW 10.4 mph 16.1 mph N/A Snow Snow
8:35 AM 13.8 °F -1.7 °F 9.3 °F 82% 30.07 in 1.8 mi NNW 15.0 mph 23.0 mph N/A Snow Light Snow
8:55 AM 14.0 °F -0.2 °F 9.0 °F 80% 30.08 in 1.8 mi NNW 12.7 mph 18.4 mph N/A Snow Light Snow
9:35 AM 14.0 °F 1.2 °F 9.1 °F 81% 30.10 in 1.0 mi North 10.4 mph 20.7 mph N/A Snow Light Snow
9:55 AM 14.2 °F -1.2 °F 9.3 °F 81% 30.11 in 1.2 mi NNW 15.0 mph 24.2 mph N/A Snow Light Snow
10:15 AM 14.4 °F -1.5 °F 9.0 °F 79% 30.12 in 1.5 mi NNW 16.1 mph 24.2 mph N/A Snow Light Snow
10:35 AM 14.5 °F -1.8 °F 9.1 °F 79% 30.13 in 1.2 mi NNW 17.3 mph 27.6 mph N/A Snow Light Snow
10:55 AM 14.5 °F -1.8 °F 8.8 °F 78% 30.14 in 1.5 mi NNW 17.3 mph 27.6 mph N/A Snow Light Snow
11:15 AM 14.4 °F -0.4 °F 9.0 °F 79% 30.14 in 1.0 mi NNW 13.8 mph 20.7 mph N/A Snow Light Snow
11:35 AM 14.7 °F -1.6 °F 8.8 °F 77% 30.15 in 1.8 mi NNW 17.3 mph 26.5 mph N/A Snow Light Snow
11:55 AM 14.9 °F -0.8 °F 8.1 °F 74% 30.16 in 2.0 mi NNW 16.1 mph 33.4 mph N/A Snow Light Snow
12:15 PM 14.7 °F 2.1 °F 8.2 °F 75% 30.16 in 1.2 mi North 10.4 mph 20.7 mph N/A Snow Light Snow
12:35 PM 14.4 °F -1.0 °F 8.6 °F 78% 30.17 in 2.0 mi North 15.0 mph 25.3 mph N/A Snow Light Snow
12:55 PM 14.0 °F 0.5 °F 7.9 °F 77% 30.17 in 2.0 mi NNW 11.5 mph 20.7 mph N/A Snow Light Snow
1:15 PM 14.2 °F -0.6 °F 8.8 °F 79% 30.18 in 1.2 mi NNW 13.8 mph 19.6 mph N/A Snow Light Snow
1:35 PM 14.0 °F -0.2 °F 8.6 °F 79% 30.18 in 0.8 mi NNW 12.7 mph 26.5 mph N/A Snow Light Snow
1:55 PM 13.8 °F 0.2 °F 8.8 °F 80% 30.19 in 1.8 mi NW 11.5 mph 21.9 mph N/A Snow Light Snow
2:35 PM 14.2 °F -1.2 °F 6.4 °F 71% 30.21 in 2.5 mi NNW 15.0 mph 26.5 mph N/A   Haze
2:55 PM 13.8 °F -2.2 °F 6.6 °F 73% 30.21 in 2.0 mi NNW 16.1 mph 24.2 mph N/A Snow Light Snow
3:15 PM 13.3 °F 3.0 °F 7.5 °F 78% 30.22 in 1.2 mi NNW 6.9 mph 19.6 mph N/A Snow Light Snow
3:35 PM 12.6 °F -2.7 °F 7.2 °F 79% 30.23 in 2.0 mi North 13.8 mph 20.7 mph N/A Snow Light Snow
3:55 PM 12.2 °F -4.3 °F 6.8 °F 79% 30.25 in 1.8 mi NNW 16.1 mph 21.9 mph N/A Snow Light Snow
4:15 PM 12.0 °F -4.0 °F 6.4 °F 78% 30.26 in 1.5 mi North 15.0 mph 21.9 mph N/A Snow Light Snow
4:35 PM 11.5 °F -0.2 °F 5.7 °F 78% 30.27 in 5.0 mi NNW 8.1 mph 18.4 mph N/A Snow Light Snow
4:55 PM 11.1 °F -3.2 °F 4.3 °F 74% 30.27 in 7.0 mi NW 11.5 mph - N/A Snow Light Snow
5:15 PM 10.9 °F -2.6 °F 4.5 °F 75% 30.27 in 7.0 mi NNW 10.4 mph - N/A Snow Light Snow
5:35 PM 10.6 °F -0.2 °F 5.0 °F 78% 30.29 in 7.0 mi NW 6.9 mph - N/A Snow Light Snow
6:15 PM 10.2 °F -3.5 °F 4.6 °F 78% 30.29 in 10.0 mi NW 10.4 mph - N/A   Overcast
6:35 PM 10.2 °F -3.5 °F 4.3 °F 77% 30.29 in 10.0 mi NW 10.4 mph 16.1 mph N/A   Overcast
6:55 PM 9.5 °F -3.5 °F 3.7 °F 77% 30.29 in 10.0 mi NW 9.2 mph - N/A   Mostly Cloudy
7:15 PM 9.1 °F -0.7 °F 3.6 °F 78% 30.29 in 10.0 mi NW 5.8 mph - N/A   Mostly Cloudy
7:35 PM 8.6 °F -2.6 °F 3.6 °F 80% 30.29 in 10.0 mi NW 6.9 mph - N/A   Mostly Cloudy
7:55 PM 8.4 °F -1.6 °F 3.4 °F 80% 30.29 in 10.0 mi NW 5.8 mph - N/A   Scattered Clouds
8:15 PM 7.7 °F -0.9 °F 3.2 °F 82% 30.29 in 10.0 mi WNW 4.6 mph - N/A Snow Light Snow
8:35 PM 7.2 °F -1.5 °F 3.0 °F 83% 30.29 in 10.0 mi NW 4.6 mph - N/A Snow Light Snow
9:15 PM 5.7 °F -4.8 °F 2.1 °F 85% 30.30 in 10.0 mi NW 5.8 mph - N/A Snow Light Snow
9:35 PM 6.3 °F -5.4 °F 2.5 °F 84% 30.30 in 10.0 mi WNW 6.9 mph - N/A Snow Light Snow
9:55 PM 6.8 °F -2.0 °F 2.7 °F 83% 30.30 in 10.0 mi WNW 4.6 mph - N/A   Mostly Cloudy
10:15 PM 5.9 °F -4.5 °F 1.9 °F 84% 30.31 in 10.0 mi NW 5.8 mph - N/A   Scattered Clouds
10:35 PM 5.2 °F -1.9 °F 1.4 °F 84% 30.31 in 10.0 mi WNW 3.5 mph - N/A Snow Light Snow
10:55 PM 4.6 °F -2.5 °F 1.0 °F 85% 30.30 in 10.0 mi WNW 3.5 mph - N/A   Mostly Cloudy
11:15 PM 5.0 °F - 1.4 °F 85% 30.30 in 5.0 mi Calm Calm - N/A Snow Light Snow
11:35 PM 4.5 °F - 0.9 °F 85% 30.30 in 7.0 mi Calm Calm - N/A Snow Light Snow
11:55 PM 0.3 °F - -3.5 °F 84% 30.29 in 5.0 mi Calm Calm - N/A Snow Light Snow